{"data":{"norad_id":43010,"epoch":"2026-09-20T05:12:54.088416Z","epoch_age_seconds":38736,"freshness":"FRESH","line1":"1 43010U 17072A   26263.21729269 -.00000059  00000+0 -58459-5 0  9993","line2":"2 43010  99.0254 239.4092 0002231 113.4231 246.7179 14.19755169458473","mean_motion":14.19755169,"eccentricity":0.0002231,"inclination_deg":99.0254,"raan_deg":239.4092,"arg_perigee_deg":113.4231,"mean_anomaly_deg":246.7179,"bstar":-5.8459e-6,"rev_number":45847,"period_min":101.42593817878,"perigee_km":824.57362643125,"apogee_km":827.78819308258,"semimajor_km":7204.3179097569,"source":"CELESTRAK","updated_at":"2026-09-20T09:00:33.219630Z"}}